Location: Amarillo Post Office Jordan Station
(35.1907°N, 101.9342°W)
Time: 01:26:13
(UTC+00:00)

COSMO-SKYMED 1 - Visible Passes

Search period start: 04 December 2021 00:00
Search period end: 14 December 2021 00:00
Orbit: 621 x 623 km, 97.9° (Epoch: 03 December)

Date Brightness Start Highest point End Pass type
(mag) Time Alt. Az. Time Alt. Az. Time Alt. Az.
04 Dec 3.4 01:12:29 10° N 01:16:42 50° WNW 01:20:53 10° SSW visible
04 Dec 2.6 12:03:46 10° SSE 12:08:05 83° E 12:12:27 10° N visible
05 Dec 4.3 01:30:48 10° N 01:34:37 31° WNW 01:38:26 10° SW visible
05 Dec 5.6 10:49:34 10° ENE 10:50:31 11° ENE 10:51:27 10° NE visible
05 Dec 2.6 12:21:51 10° S 12:26:06 59° W 12:30:24 10° NNW visible
06 Dec 3.4 00:12:45 10° NE 00:16:34 30° E 00:20:22 10° SSE visible
06 Dec 5.0 01:49:21 10° NNW 01:52:30 20° WNW 01:55:38 10° WSW visible
06 Dec 5.2 11:05:32 10° ESE 11:08:19 17° ENE 11:11:07 10° NNE visible
06 Dec 3.2 12:40:11 10° SSW 12:44:09 35° W 12:48:10 10° NNW visible
07 Dec 2.8 00:30:25 10° NNE 00:34:39 49° E 00:38:50 10° S visible
07 Dec 5.5 02:08:26 10° NW 02:10:20 13° WNW 02:12:13 10° W visible
07 Dec 4.6 11:22:35 10° SE 11:26:11 26° ENE 11:29:46 10° NNE visible
07 Dec 3.8 12:58:53 10° SSW 13:02:16 22° W 13:05:39 10° NW visible
08 Dec 2.5 00:48:19 10° NNE 00:52:41 83° ESE 00:57:00 10° S visible
08 Dec 3.7 11:40:01 10° SE 11:44:05 42° ENE 11:47:52 12° N visible
09 Dec 3.1 01:06:22 10° N 01:10:39 60° WNW 01:14:55 10° SSW visible
09 Dec 2.8 11:57:45 10° SSE 12:02:03 70° ENE 12:05:58 12° N visible
10 Dec 4.0 01:24:36 10° N 01:28:36 36° WNW 01:32:33 10° SW visible
10 Dec 2.5 12:15:44 10° S 12:20:02 71° WSW 12:24:04 12° NNW visible
11 Dec 3.6 00:06:51 10° NE 00:10:29 25° E 00:14:05 10° SSE visible
11 Dec 4.8 01:43:03 10° NNW 01:46:29 23° WNW 01:49:54 10° WSW visible
11 Dec 5.4 10:59:57 10° E 11:02:19 15° ENE 11:04:41 10° NNE visible
11 Dec 2.9 12:33:58 10° S 12:38:04 42° W 12:42:10 10° NNW visible
12 Dec 3.0 00:24:26 10° NNE 00:28:33 41° E 00:32:39 10° S visible
12 Dec 5.4 02:01:54 10° NNW 02:04:20 15° WNW 02:06:45 10° W visible
12 Dec 4.8 11:16:46 10° ESE 11:20:09 23° ENE 11:23:04 12° NNE visible
12 Dec 3.6 12:52:32 10° SSW 12:56:09 26° W 12:59:48 10° NW visible
13 Dec 2.5 00:42:15 10° NNE 00:46:36 70° E 00:50:55 10° S visible
13 Dec 4.0 11:34:06 10° SE 11:38:02 35° ENE 11:41:11 15° NNE visible
13 Dec 4.2 13:11:34 10° SW 13:14:17 16° W 13:17:00 10° NW visible
